| time (UTC) | temp C | wind direction | speed KPH | gust KPH | rain 1hr cm | rain 24hr cm | rain mn cm | humidity % | barometer mb |
| 20260507013212 | 8 | 265 | 16.1 | 0.0 | 0.00 | 0.00 | 0.00 | 63 | 1011.8 |
| 20260507010211 | 8 | 207 | 12.9 | 0.0 | 0.00 | 0.00 | 0.00 | 62 | 1011.8 |
| 20260507003209 | 8 | 204 | 14.5 | 0.0 | 0.00 | 0.00 | 0.00 | 62 | 1011.7 |
| 20260507000209 | 8 | 232 | 17.7 | 0.0 | 0.00 | 0.00 | 0.00 | 63 | 1011.7 |
| 20260506233209 | 8 | 247 | 17.7 | 0.0 | 0.00 | 0.00 | 0.00 | 64 | 1011.5 |
| 20260506230209 | 8 | 248 | 12.9 | 0.0 | 0.00 | 0.00 | 0.00 | 63 | 1011.4 |
| 20260506223209 | 8 | 220 | 6.4 | 0.0 | 0.00 | 0.00 | 0.00 | 63 | 1011.4 |
| 20260506213209 | 8 | 233 | 20.9 | 0.0 | 0.00 | 0.00 | 0.20 | 64 | 1011.0 |
| 20260506210210 | 8 | 240 | 9.7 | 0.0 | 0.00 | 0.00 | 0.20 | 62 | 1010.7 |
| 20260506203210 | 9 | 224 | 19.3 | 0.0 | 0.00 | 0.00 | 0.20 | 63 | 1010.8 |
| 20260506200210 | 9 | 195 | 16.1 | 0.0 | 0.00 | 0.00 | 0.20 | 63 | 1010.5 |
| 20260506193215 | 9 | 231 | 16.1 | 0.0 | 0.00 | 0.00 | 0.20 | 63 | 1010.2 |
| 20260506190211 | 9 | 223 | 22.5 | 0.0 | 0.00 | 0.00 | 0.20 | 61 | 1009.7 |
| 20260506183209 | 10 | 211 | 19.3 | 0.0 | 0.00 | 0.00 | 0.20 | 62 | 1009.2 |
| 20260506180216 | 10 | 213 | 20.9 | 0.0 | 0.00 | 0.00 | 0.20 | 62 | 1009.2 |
| 20260506173210 | 10 | 246 | 24.1 | 0.0 | 0.00 | 0.00 | 0.20 | 61 | 1008.9 |
| 20260506170215 | 10 | 256 | 22.5 | 0.0 | 0.00 | 0.00 | 0.20 | 60 | 1008.5 |
| 20260506163210 | 10 | 224 | 17.7 | 0.0 | 0.00 | 0.00 | 0.20 | 62 | 1008.4 |
| 20260506160210 | 10 | 260 | 19.3 | 0.0 | 0.00 | 0.00 | 0.20 | 63 | 1008.2 |
| 20260506153210 | 10 | 256 | 46.7 | 0.0 | 0.00 | 0.00 | 0.18 | 62 | 1007.8 |
| 20260506150210 | 11 | 219 | 41.8 | 0.0 | 0.00 | 0.00 | 0.10 | 60 | 1007.0 |
| 20260506143210 | 17 | 222 | 11.3 | 0.0 | 0.00 | 0.00 | 0.00 | 48 | 1005.6 |
| 20260506140210 | 16 | 98 | 11.3 | 0.0 | 0.00 | 0.00 | 0.00 | 48 | 1005.6 |
| 20260506133211 | 17 | 259 | 4.8 | 0.0 | 0.00 | 0.00 | 0.00 | 51 | 1005.9 |
| 20260506130211 | 17 | 226 | 8.0 | 0.0 | 0.00 | 0.00 | 0.00 | 49 | 1005.8 |
| 20260506123210 | 16 | 234 | 6.4 | 0.0 | 0.00 | 0.00 | 0.00 | 50 | 1005.7 |
| 20260506120210 | 16 | 43 | 4.8 | 0.0 | 0.00 | 0.00 | 0.00 | 50 | 1005.6 |
| 20260506113217 | 17 | 274 | 9.7 | 0.0 | 0.00 | 0.00 | 0.00 | 49 | 1005.8 |
| 20260506110210 | 16 | 13 | 12.9 | 0.0 | 0.00 | 0.00 | 0.00 | 50 | 1006.0 |
| 20260506100213 | 15 | 342 | 6.4 | 0.0 | 0.00 | 0.00 | 0.00 | 51 | 1006.3 |
| 20260506093211 | 15 | 270 | 6.4 | 0.0 | 0.00 | 0.00 | 0.00 | 49 | 1006.7 |
| 20260506090211 | 16 | 221 | 9.7 | 0.0 | 0.00 | 0.00 | 0.00 | 48 | 1006.8 |
| 20260506083211 | 15 | 287 | 8.0 | 0.0 | 0.00 | 0.00 | 0.00 | 50 | 1006.7 |
| 20260506080212 | 13 | 295 | 0.0 | 0.0 | 0.00 | 0.00 | 0.00 | 53 | 1007.0 |
| 20260506073211 | 12 | 308 | 4.8 | 0.0 | 0.00 | 0.00 | 0.00 | 57 | 1007.1 |
| 20260506070212 | 12 | 254 | 9.7 | 0.0 | 0.00 | 0.00 | 0.00 | 61 | 1007.2 |
| 20260506060210 | 10 | 138 | 4.8 | 0.0 | 0.00 | 0.00 | 0.00 | 72 | 1007.1 |
| 20260506050211 | 8 | 114 | 0.0 | 0.0 | 0.00 | 0.00 | 0.00 | 69 | 1007.2 |
| 20260506043211 | 8 | 121 | 4.8 | 0.0 | 0.00 | 0.00 | 0.00 | 67 | 1007.6 |
| 20260506040211 | 8 | 145 | 0.0 | 0.0 | 0.00 | 0.00 | 0.00 | 67 | 1007.7 |
| 20260506033211 | 8 | 145 | 0.0 | 0.0 | 0.00 | 0.00 | 0.00 | 67 | 1008.1 |
| 20260506030212 | 9 | 172 | 3.2 | 0.0 | 0.00 | 0.00 | 0.00 | 67 | 1008.4 |
| 20260506023211 | 9 | 262 | 0.0 | 0.0 | 0.00 | 0.00 | 0.00 | 67 | 1008.4 |
| 20260506020212 | 9 | 213 | 0.0 | 0.0 | 0.00 | 0.00 | 0.00 | 66 | 1008.7 |